Погода в Новопокровке

Россия / Томская область     56°19′20″N   83°51′48″E
В апреле 2022 года жителям России запретили посещать сайт meteo.paraplan.net по решению Генеральной прокуратуры. Аудитория сайта уменьшилась в 10 раз. Владельцы сайта не видят смысла в поддержке погодного сервера в таких условиях. Сайт будет закрыт в октябре.
темп.,
°C
ветер,
м/с
пор.,
м/с
влажн.,
%
обл.,
%
осадки,
мм/ч
давл.,
гПа
погр.,
м
3 октября, пн
пн301:00−1ю11805 0.0 103910
04:00−2ююз11815 0.0 103910
07:00−2юз00825 0.0 103910
10:00+2в00655 0.0 1039220
13:00+6св00535 0.0 1037808
16:00+7с11475 0.0 10361072
19:00+3с22615 0.0 103610
22:00+1всв22715 0.0 103610
4 октября, вт
вт401:000в11775 0.0 103610
04:00−1с117925 0.0 103610
07:00−1всв008093 0.0 103610
10:00+2юз116380 0.0 1035193
13:00+6зюз234871 0.0 1034722
16:00+8зюз3445100 0.0 10331001
19:00+4зюз3462100 0.0 103270
22:00+3юз3871100 0.0 1032184
5 октября, ср
ср501:00+4зюз4971100 0.0 1031609
04:00+3юз41092100 0.1 1030573
07:00+3юз4997100 1.0 1029533
10:00+4зюз5992100 0.1 1028475
13:00+5з51093100 0.4 1028501
16:00+5зсз4795100 0.2 1028540
19:00+5сз3694100 0.3 1029221
22:00+3сз2289100 0.0 103013
6 октября, чт
чт601:00+2зсз1191100 0.0 102910
04:00+2з1192100 0.0 102910
07:00+1сз22935 0.0 102810
10:00+4ссз348571 0.0 1028227
13:00+5с3478100 0.0 1028520
16:00+6с4462100 0.1 10291081
19:00+4с2272100 0.1 103049
22:00+3св1173100 0.0 103113
7 октября, пт
пт701:00+4вюв1165100 0.0 103211
04:00+2ююв2273100 0.0 103210
07:000ююв2282100 0.0 103210
10:00+3юв237299 0.0 1031182
13:00+7ююв3458100 0.0 1030859
16:00+8ююв3452100 0.0 1028968
19:00+5ююв3468100 0.0 102752
22:00+4ююв4875100 0.0 1026170